BAW193 EGLL-KDFW

Flight info

Callsign BAW193
Flight time N/A
Altitude 34000
Route ULTIB T420 TNT UL28 PENIL DCT DEJEM DCT OZRAT DCT WETFI DCT REVNU DCT ETARI/M085F360 DCT 56N020W 5630N03000W 5730N04000W 5830N05000W DCT AVUTI/N0499F360 N852B TEALS DCT YGL/N0498F380 DCT PELEE DCT XEXUL DCT TRUDY DCT YQT DCT HHOGS DCT GEP DCT ORSKY DCT SIMJI DCT OVR DCT CATTS DCT PER DCT IBAKE JOVEM6
Aircraft A35K/H-SDE2E3GHIJ3J4J5LM1ORWXY/LB1D1

Departure

Time 2026-05-06 08:34
Airport London Heathrow Airport (EGLL)

Arrival

Time N/A
Airport Dallas Fort Worth International Airport (KDFW)
Time Latitude Longitude Altitude Speed Heading
2026-05-06 07:38 51.47182 -0.48238 96 ft 0 kts 89°
2026-05-06 08:25 51.47182 -0.48271 93 ft 4 kts 89°
2026-05-06 08:26 51.47181 -0.48306 90 ft 4 kts 91°
2026-05-06 08:26 51.47186 -0.48344 90 ft 4 kts 135°
2026-05-06 08:26 51.47206 -0.48357 92 ft 4 kts 179°
2026-05-06 08:26 51.47233 -0.48358 91 ft 4 kts 179°
2026-05-06 08:27 51.47239 -0.48358 91 ft 0 kts 179°
2026-05-06 08:30 51.47215 -0.48358 91 ft 10 kts 179°
2026-05-06 08:30 51.47134 -0.48357 95 ft 13 kts 179°
2026-05-06 08:31 51.47033 -0.48355 95 ft 16 kts 179°
2026-05-06 08:31 51.46928 -0.48354 95 ft 15 kts 179°
2026-05-06 08:31 51.46827 -0.48353 92 ft 15 kts 179°
2026-05-06 08:31 51.46753 -0.48368 94 ft 8 kts 213°
2026-05-06 08:32 51.46741 -0.48462 93 ft 11 kts 272°
2026-05-06 08:32 51.46743 -0.48592 93 ft 13 kts 271°
2026-05-06 08:32 51.46720 -0.48726 97 ft 12 kts 218°
2026-05-06 08:32 51.46630 -0.48756 95 ft 14 kts 191°
2026-05-06 08:33 51.46528 -0.48772 94 ft 16 kts 163°
2026-05-06 08:33 51.46479 -0.48675 95 ft 9 kts 97°
2026-05-06 08:33 51.46479 -0.48635 94 ft 0 kts 89°
2026-05-06 08:33 51.46480 -0.48486 94 ft 45 kts 90°
2026-05-06 08:34 51.46482 -0.47599 91 ft 112 kts 90°
2026-05-06 08:34 51.46498 -0.44089 669 ft 173 kts 84°
2026-05-06 08:34 51.46529 -0.42172 1429 ft 172 kts 81°
2026-05-06 08:35 51.46885 -0.40352 1810 ft 178 kts 48°
2026-05-06 08:35 51.47835 -0.38969 2122 ft 194 kts 38°
2026-05-06 08:35 51.48909 -0.37479 2452 ft 212 kts 41°
2026-05-06 08:35 51.49987 -0.35760 2878 ft 227 kts 44°
2026-05-06 08:36 51.51082 -0.33836 3341 ft 238 kts 47°
2026-05-06 08:36 51.52325 -0.32077 3935 ft 240 kts 26°
2026-05-06 08:36 51.53367 -0.31518 4355 ft 240 kts
2026-05-06 08:36 51.55032 -0.31585 5056 ft 241 kts 352°
2026-05-06 08:37 51.57255 -0.32106 5950 ft 247 kts 351°
2026-05-06 08:37 51.58969 -0.32501 6590 ft 251 kts 351°
2026-05-06 08:37 51.60704 -0.32883 6928 ft 253 kts 351°
2026-05-06 08:37 51.62459 -0.33276 7021 ft 258 kts 351°
2026-05-06 08:38 51.63637 -0.33545 7014 ft 258 kts 351°
2026-05-06 08:38 51.65418 -0.33949 7019 ft 258 kts 351°
2026-05-06 08:38 51.67187 -0.34350 7160 ft 258 kts 351°
2026-05-06 08:38 51.68979 -0.34766 7623 ft 262 kts 351°
2026-05-06 08:39 51.70793 -0.35195 8371 ft 265 kts 351°
2026-05-06 08:39 51.72624 -0.35636 9109 ft 268 kts 351°
2026-05-06 08:39 51.74472 -0.36083 9871 ft 270 kts 351°
2026-05-06 08:39 51.76344 -0.36673 10341 ft 282 kts 343°
2026-05-06 08:40 51.78218 -0.37904 10595 ft 300 kts 334°
2026-05-06 08:40 51.80116 -0.39543 10890 ft 318 kts 330°
2026-05-06 08:40 51.82049 -0.41448 11208 ft 334 kts 327°
2026-05-06 08:40 51.84046 -0.43537 11547 ft 349 kts 327°
2026-05-06 08:41 51.86074 -0.45697 11937 ft 360 kts 326°
2026-05-06 08:41 51.88197 -0.47947 12434 ft 368 kts 327°
2026-05-06 08:41 51.90363 -0.50218 13001 ft 375 kts 327°
2026-05-06 08:41 51.92569 -0.52511 13594 ft 378 kts 327°
2026-05-06 08:42 51.94785 -0.54801 13931 ft 378 kts 327°
2026-05-06 08:42 51.97016 -0.57100 14378 ft 381 kts 327°
2026-05-06 08:42 51.99259 -0.59409 14996 ft 383 kts 327°
2026-05-06 08:42 52.01520 -0.61740 15568 ft 386 kts 327°
2026-05-06 08:43 52.03797 -0.64093 16137 ft 391 kts 327°
2026-05-06 08:43 52.06110 -0.66485 16680 ft 394 kts 326°
2026-05-06 08:43 52.08390 -0.68847 17344 ft 396 kts 326°
2026-05-06 08:43 52.10718 -0.71264 17983 ft 398 kts 326°
2026-05-06 08:44 52.13063 -0.73703 18513 ft 403 kts 326°
2026-05-06 08:44 52.15451 -0.76137 18996 ft 407 kts 327°
2026-05-06 08:44 52.17881 -0.78543 19516 ft 411 kts 327°
2026-05-06 08:44 52.20344 -0.80953 20049 ft 414 kts 327°
2026-05-06 08:45 52.22825 -0.83380 20583 ft 417 kts 327°
2026-05-06 08:45 52.25320 -0.85827 21164 ft 419 kts 327°
2026-05-06 08:45 52.27831 -0.88300 21651 ft 424 kts 327°
2026-05-06 08:45 52.30368 -0.90814 22124 ft 429 kts 326°
2026-05-06 08:46 52.32931 -0.93364 22640 ft 433 kts 326°
2026-05-06 08:46 52.35473 -0.95900 23176 ft 436 kts 326°
2026-05-06 08:46 52.38072 -0.98496 23680 ft 439 kts 326°
2026-05-06 08:46 52.40686 -1.01111 24153 ft 442 kts 326°
2026-05-06 08:47 52.43320 -1.03748 24616 ft 444 kts 326°
2026-05-06 08:47 52.45963 -1.06397 25086 ft 447 kts 326°
2026-05-06 08:47 52.48626 -1.09069 25550 ft 450 kts 326°
2026-05-06 08:47 52.51302 -1.11752 25987 ft 452 kts 327°
2026-05-06 08:48 52.53993 -1.14458 26449 ft 455 kts 326°
2026-05-06 08:48 52.56658 -1.17144 26900 ft 457 kts 326°
2026-05-06 08:48 52.59377 -1.19890 27335 ft 460 kts 326°
2026-05-06 08:48 52.62108 -1.22651 27743 ft 462 kts 326°
2026-05-06 08:49 52.64857 -1.25434 28145 ft 465 kts 326°
2026-05-06 08:49 52.67621 -1.28236 28540 ft 468 kts 327°
2026-05-06 08:49 52.70398 -1.31054 28934 ft 470 kts 327°
2026-05-06 08:49 52.73195 -1.33891 29311 ft 473 kts 327°
2026-05-06 08:50 52.76000 -1.36747 29728 ft 475 kts 326°
2026-05-06 08:50 52.78815 -1.39621 30069 ft 477 kts 326°
2026-05-06 08:50 52.81644 -1.42515 30438 ft 477 kts 326°
2026-05-06 08:50 52.84460 -1.45400 30839 ft 476 kts 326°
2026-05-06 08:51 52.87203 -1.48328 31202 ft 475 kts 322°
2026-05-06 08:51 52.89757 -1.51765 31556 ft 472 kts 315°
2026-05-06 08:51 52.91968 -1.55746 31939 ft 468 kts 306°
2026-05-06 08:51 52.93766 -1.60220 32313 ft 465 kts 297°
2026-05-06 08:52 52.95218 -1.65000 32662 ft 464 kts 293°
2026-05-06 08:52 52.96512 -1.69886 33013 ft 463 kts 291°
2026-05-06 08:52 52.97725 -1.74822 33340 ft 462 kts 290°
2026-05-06 08:52 52.98907 -1.79773 33685 ft 461 kts 290°
2026-05-06 08:53 53.00084 -1.84714 33981 ft 461 kts 290°
2026-05-06 08:53 53.02479 -1.94644 34047 ft 464 kts 290°
2026-05-06 08:54 53.04894 -2.04531 34059 ft 465 kts 290°
2026-05-06 08:54 53.07328 -2.14480 34057 ft 464 kts 290°
2026-05-06 08:55 53.09749 -2.24421 34062 ft 464 kts 290°
2026-05-06 08:55 53.12159 -2.34372 34063 ft 464 kts 290°
2026-05-06 08:56 53.14545 -2.44276 34067 ft 463 kts 290°
2026-05-06 08:56 53.16936 -2.54244 34066 ft 464 kts 290°
2026-05-06 08:57 53.19318 -2.64222 34062 ft 463 kts 290°
2026-05-06 08:57 53.21688 -2.74191 34053 ft 462 kts 290°
2026-05-06 08:58 53.24051 -2.84179 34075 ft 462 kts 289°
2026-05-06 08:58 53.26386 -2.94097 34075 ft 462 kts 289°
2026-05-06 08:59 53.28728 -3.04089 34073 ft 462 kts 289°
2026-05-06 08:59 53.31059 -3.14081 34069 ft 461 kts 289°
2026-05-06 09:00 53.33379 -3.24075 34065 ft 461 kts 289°
2026-05-06 09:00 53.35678 -3.34020 34064 ft 461 kts 289°
2026-05-06 09:01 53.37973 -3.43997 34059 ft 461 kts 289°
2026-05-06 09:01 53.40171 -3.53598 34058 ft 461 kts 289°
2026-05-06 09:02 53.42272 -3.62812 34058 ft 461 kts 289°
2026-05-06 09:02 53.44397 -3.72176 34053 ft 461 kts 289°
2026-05-06 09:03 53.46508 -3.81519 34053 ft 461 kts 289°
2026-05-06 09:03 53.48681 -3.91181 34058 ft 461 kts 289°
2026-05-06 09:04 53.50794 -4.00614 34057 ft 461 kts 289°
2026-05-06 09:04 53.52948 -4.10278 34056 ft 461 kts 289°
2026-05-06 09:05 53.55189 -4.20385 34054 ft 462 kts 289°
2026-05-06 09:05 53.57410 -4.30444 34053 ft 462 kts 289°
2026-05-06 09:06 53.59637 -4.40581 34051 ft 462 kts 289°
2026-05-06 09:06 53.61855 -4.50728 34050 ft 462 kts 289°
2026-05-06 09:07 53.64066 -4.60890 34048 ft 462 kts 288°
2026-05-06 09:07 53.66266 -4.71057 34050 ft 462 kts 289°
2026-05-06 09:08 53.68457 -4.81228 34048 ft 464 kts 289°
2026-05-06 09:08 53.70638 -4.91404 34048 ft 464 kts 289°
2026-05-06 09:09 53.72826 -5.01662 34046 ft 464 kts 289°
2026-05-06 09:09 53.75006 -5.11934 34051 ft 464 kts 288°
2026-05-06 09:10 53.77175 -5.22210 34058 ft 464 kts 288°
2026-05-06 09:10 53.79335 -5.32497 34051 ft 464 kts 289°
2026-05-06 09:11 53.81487 -5.42798 34046 ft 464 kts 289°
2026-05-06 09:11 53.83603 -5.53051 34050 ft 464 kts 287°
2026-05-06 09:12 53.85329 -5.63579 34053 ft 464 kts 283°
2026-05-06 09:12 53.86882 -5.74187 34051 ft 464 kts 284°
2026-05-06 09:13 53.88475 -5.84772 34052 ft 463 kts 284°
2026-05-06 09:13 53.90107 -5.95337 34051 ft 463 kts 284°
2026-05-06 09:14 53.91734 -6.05830 34051 ft 463 kts 284°
2026-05-06 09:14 53.93364 -6.16411 34046 ft 463 kts 284°
2026-05-06 09:15 53.94982 -6.26999 34044 ft 463 kts 284°
2026-05-06 09:15 53.96588 -6.37597 34039 ft 464 kts 284°
2026-05-06 09:16 53.98187 -6.48209 34036 ft 464 kts 284°
2026-05-06 09:16 53.99767 -6.58760 34037 ft 464 kts 284°
2026-05-06 09:17 54.01348 -6.69395 34040 ft 464 kts 284°
2026-05-06 09:17 54.02919 -6.80036 34038 ft 464 kts 284°
2026-05-06 09:18 54.04482 -6.90687 34037 ft 465 kts 284°
2026-05-06 09:18 54.06037 -7.01369 34033 ft 465 kts 284°
2026-05-06 09:19 54.07575 -7.12000 34033 ft 466 kts 284°
2026-05-06 09:19 54.09115 -7.22712 34034 ft 466 kts 284°
2026-05-06 09:20 54.10646 -7.33435 34038 ft 466 kts 284°
2026-05-06 09:20 54.12165 -7.44157 34025 ft 466 kts 285°
2026-05-06 09:21 54.13680 -7.54916 34031 ft 467 kts 284°
2026-05-06 09:21 54.15185 -7.65688 34032 ft 467 kts 284°
2026-05-06 09:22 54.16672 -7.76404 34033 ft 467 kts 284°
2026-05-06 09:22 54.18160 -7.87202 34032 ft 467 kts 284°
2026-05-06 09:23 54.19636 -7.98005 34021 ft 467 kts 285°
2026-05-06 09:23 54.21107 -8.08834 34031 ft 468 kts 285°
2026-05-06 09:24 54.22569 -8.19681 34036 ft 468 kts 285°
2026-05-06 09:24 54.24007 -8.30440 34031 ft 467 kts 285°
2026-05-06 09:25 54.25446 -8.41265 34029 ft 467 kts 285°
2026-05-06 09:25 54.26874 -8.52095 34075 ft 467 kts 285°
2026-05-06 09:26 54.28288 -8.62918 34072 ft 465 kts 285°
2026-05-06 09:26 54.29690 -8.73716 34075 ft 465 kts 285°
2026-05-06 09:27 54.31071 -8.84428 34068 ft 465 kts 285°
2026-05-06 09:27 54.32453 -8.95231 34060 ft 465 kts 285°
2026-05-06 09:28 54.33817 -9.05976 34053 ft 465 kts 285°
2026-05-06 09:28 54.35181 -9.16808 34048 ft 464 kts 285°
2026-05-06 09:29 54.36532 -9.27623 34046 ft 464 kts 285°
2026-05-06 09:29 54.37866 -9.38387 34045 ft 464 kts 285°
2026-05-06 09:30 54.39198 -9.49214 34051 ft 463 kts 285°
2026-05-06 09:30 54.40513 -9.59996 34051 ft 461 kts 285°
2026-05-06 09:31 54.41803 -9.70647 34056 ft 460 kts 285°
2026-05-06 09:31 54.43095 -9.81401 34056 ft 460 kts 285°
2026-05-06 09:32 54.44377 -9.92156 34061 ft 460 kts 285°
2026-05-06 09:32 54.45642 -10.02856 34065 ft 460 kts 285°
2026-05-06 09:33 54.47200 -10.13468 34068 ft 456 kts 293°
2026-05-06 09:33 54.49474 -10.23625 34044 ft 455 kts 295°
2026-05-06 09:34 54.51859 -10.33725 34065 ft 456 kts 295°
2026-05-06 09:34 54.54253 -10.43833 34067 ft 456 kts 295°
2026-05-06 09:35 54.56628 -10.53967 34065 ft 455 kts 295°
2026-05-06 09:35 54.58957 -10.63992 34061 ft 453 kts 295°
2026-05-06 09:36 54.61290 -10.74082 34064 ft 453 kts 295°
2026-05-06 09:36 54.63615 -10.84183 34051 ft 453 kts 295°
2026-05-06 09:37 54.65930 -10.94290 34063 ft 452 kts 295°
2026-05-06 09:37 54.68234 -11.04396 34058 ft 452 kts 295°
2026-05-06 09:38 54.70514 -11.14443 34059 ft 452 kts 295°
2026-05-06 09:38 54.72800 -11.24567 34059 ft 452 kts 295°
2026-05-06 09:39 54.75076 -11.34699 34058 ft 451 kts 294°
2026-05-06 09:39 54.77332 -11.44791 34056 ft 449 kts 294°
2026-05-06 09:40 54.79579 -11.54884 34052 ft 449 kts 294°
2026-05-06 09:40 54.82918 -11.69974 34051 ft 449 kts 294°
2026-05-06 09:41 54.85142 -11.80089 34050 ft 449 kts 294°
2026-05-06 09:41 54.87357 -11.90214 34050 ft 449 kts 294°
2026-05-06 09:42 54.89563 -12.00344 34050 ft 449 kts 294°
2026-05-06 09:42 54.91762 -12.10496 34049 ft 449 kts 294°
2026-05-06 09:43 54.93931 -12.20561 34047 ft 446 kts 294°
2026-05-06 09:43 54.96098 -12.30660 34042 ft 445 kts 294°
2026-05-06 09:44 54.98254 -12.40759 34042 ft 445 kts 294°
2026-05-06 09:44 55.00401 -12.50863 34042 ft 445 kts 294°
2026-05-06 09:45 55.02540 -12.60982 34045 ft 445 kts 294°
2026-05-06 09:45 55.04657 -12.71046 34042 ft 445 kts 294°
2026-05-06 09:46 55.06778 -12.81180 34045 ft 445 kts 294°
2026-05-06 09:46 55.08891 -12.91332 34045 ft 445 kts 293°
2026-05-06 09:47 55.11006 -13.01543 34036 ft 442 kts 293°
2026-05-06 09:47 55.13083 -13.11624 34037 ft 441 kts 293°
2026-05-06 09:48 55.15152 -13.21712 34037 ft 441 kts 293°
2026-05-06 09:48 55.17213 -13.31806 34025 ft 441 kts 293°
2026-05-06 09:49 55.19266 -13.41916 34034 ft 441 kts 293°
2026-05-06 09:49 55.21314 -13.52057 34046 ft 442 kts 293°
2026-05-06 09:50 55.23338 -13.62131 34029 ft 442 kts 293°
2026-05-06 09:50 55.25368 -13.72289 34029 ft 442 kts 292°
2026-05-06 09:51 55.27390 -13.82456 34031 ft 442 kts 292°
2026-05-06 09:51 55.29403 -13.92631 34015 ft 442 kts 292°
2026-05-06 09:52 55.31408 -14.02814 34025 ft 441 kts 292°
2026-05-06 09:52 55.33404 -14.13012 34024 ft 441 kts 292°
2026-05-06 09:53 55.35390 -14.23211 34022 ft 441 kts 292°
2026-05-06 09:53 55.37370 -14.33433 34023 ft 441 kts 292°
2026-05-06 09:54 55.39339 -14.43652 34020 ft 441 kts 292°
2026-05-06 09:54 55.41302 -14.53892 34023 ft 442 kts 292°
2026-05-06 09:55 55.43261 -14.64161 34040 ft 443 kts 291°
2026-05-06 09:55 55.45193 -14.74361 34017 ft 437 kts 291°
2026-05-06 09:56 55.47093 -14.84440 34022 ft 436 kts 291°
2026-05-06 09:56 55.48998 -14.94590 34092 ft 435 kts 291°
2026-05-06 09:57 55.49884 -14.99683 34389 ft 435 kts 287°
2026-05-06 09:57 55.50584 -15.04863 34684 ft 434 kts 286°
2026-05-06 09:57 55.51245 -15.10070 34876 ft 435 kts 285°
2026-05-06 09:57 55.51883 -15.15290 35083 ft 436 kts 285°
2026-05-06 09:58 55.52510 -15.20531 35249 ft 437 kts 285°
2026-05-06 09:58 55.53134 -15.25786 35372 ft 439 kts 285°
2026-05-06 09:58 55.53758 -15.31070 35542 ft 440 kts 284°
2026-05-06 09:58 55.54382 -15.36354 35742 ft 440 kts 284°
2026-05-06 09:59 55.55005 -15.41640 35911 ft 440 kts 284°
2026-05-06 09:59 55.55629 -15.46945 36013 ft 443 kts 284°
2026-05-06 09:59 55.56879 -15.57607 36018 ft 448 kts 284°
2026-05-06 10:00 55.58129 -15.68368 36020 ft 446 kts 284°
2026-05-06 10:00 55.59365 -15.79094 36017 ft 445 kts 284°
2026-05-06 10:01 55.60592 -15.89826 36012 ft 446 kts 283°
2026-05-06 10:01 55.61813 -16.00595 36012 ft 447 kts 283°
2026-05-06 10:02 55.63024 -16.11371 36012 ft 447 kts 283°
2026-05-06 10:02 55.64227 -16.22165 36012 ft 447 kts 283°
2026-05-06 10:03 55.65219 -16.31133 36010 ft 447 kts 283°
2026-05-06 10:03 55.66404 -16.41933 36004 ft 447 kts 283°
2026-05-06 10:04 55.67581 -16.52743 36004 ft 447 kts 283°
2026-05-06 10:04 55.68749 -16.63569 36007 ft 447 kts 283°
2026-05-06 10:05 55.69907 -16.74407 36022 ft 447 kts 283°
2026-05-06 10:05 55.71054 -16.85225 36004 ft 446 kts 283°
2026-05-06 10:06 55.72188 -16.96025 36004 ft 445 kts 282°
2026-05-06 10:06 55.73313 -17.06824 36004 ft 445 kts 282°
2026-05-06 10:07 55.74430 -17.17650 35999 ft 447 kts 282°
2026-05-06 10:07 55.75539 -17.28498 35998 ft 447 kts 282°
2026-05-06 10:08 55.76639 -17.39365 35999 ft 447 kts 282°
2026-05-06 10:08 55.77730 -17.50236 35998 ft 447 kts 282°
2026-05-06 10:09 55.78812 -17.61118 35998 ft 447 kts 282°
2026-05-06 10:09 55.79883 -17.72000 35993 ft 447 kts 282°
2026-05-06 10:10 55.80946 -17.82893 35996 ft 447 kts 282°
2026-05-06 10:10 55.81996 -17.93767 35995 ft 445 kts 282°
2026-05-06 10:11 55.83034 -18.04614 35993 ft 445 kts 281°
2026-05-06 10:11 55.84062 -18.15469 35988 ft 445 kts 281°
2026-05-06 10:12 55.85073 -18.26248 35988 ft 445 kts 281°
2026-05-06 10:12 55.86083 -18.37114 35980 ft 445 kts 281°
2026-05-06 10:13 55.87085 -18.48008 35991 ft 446 kts 281°
2026-05-06 10:13 55.88079 -18.58924 35982 ft 446 kts 281°
2026-05-06 10:14 55.89062 -18.69844 35985 ft 447 kts 281°
2026-05-06 10:14 55.90036 -18.80772 35985 ft 447 kts 281°
2026-05-06 10:15 55.91001 -18.91708 35985 ft 447 kts 281°
2026-05-06 10:15 55.91955 -19.02632 35975 ft 446 kts 280°
2026-05-06 10:16 55.92900 -19.13569 35979 ft 446 kts 280°
2026-05-06 10:16 55.93835 -19.24511 35979 ft 446 kts 280°
2026-05-06 10:17 55.94760 -19.35456 35980 ft 446 kts 280°
2026-05-06 10:17 55.95675 -19.46404 35977 ft 446 kts 280°
2026-05-06 10:18 55.96580 -19.57360 35977 ft 446 kts 280°
2026-05-06 10:18 55.97478 -19.68332 35980 ft 447 kts 279°
2026-05-06 10:19 55.98367 -19.79341 35981 ft 448 kts 279°
2026-05-06 10:19 55.99247 -19.90359 35975 ft 448 kts 279°
2026-05-06 10:20 56.00118 -20.01383 35973 ft 448 kts 279°
2026-05-06 10:20 56.01080 -20.12390 35978 ft 447 kts 281°
2026-05-06 10:21 56.02097 -20.23338 35975 ft 446 kts 281°
2026-05-06 10:21 56.03088 -20.34231 35976 ft 448 kts 280°
2026-05-06 10:22 56.04063 -20.45235 35976 ft 448 kts 280°
2026-05-06 10:22 56.05023 -20.56261 35979 ft 449 kts 280°
2026-05-06 10:23 56.05972 -20.67288 35980 ft 449 kts 280°
2026-05-06 10:23 56.06913 -20.78322 35974 ft 449 kts 279°
2026-05-06 10:24 56.07844 -20.89362 35977 ft 449 kts 279°
2026-05-06 10:24 56.08769 -21.00426 35979 ft 450 kts 279°
2026-05-06 10:25 56.09684 -21.11524 35980 ft 451 kts 279°
2026-05-06 10:25 56.10590 -21.22637 35976 ft 450 kts 279°
2026-05-06 10:26 56.11483 -21.33723 35976 ft 449 kts 279°
2026-05-06 10:26 56.12366 -21.44804 35985 ft 449 kts 279°
2026-05-06 10:27 56.13240 -21.55894 35987 ft 449 kts 279°
2026-05-06 10:27 56.14106 -21.67019 35982 ft 451 kts 278°
2026-05-06 10:28 56.14957 -21.78095 35985 ft 452 kts 278°
2026-05-06 10:28 56.15806 -21.89268 35985 ft 452 kts 278°
2026-05-06 10:29 56.16644 -22.00445 35990 ft 452 kts 278°
2026-05-06 10:29 56.17473 -22.11629 35990 ft 452 kts 278°
2026-05-06 10:30 56.18291 -22.22810 35974 ft 452 kts 278°
2026-05-06 10:30 56.19100 -22.34010 35995 ft 453 kts 277°
2026-05-06 10:31 56.19900 -22.45225 35998 ft 453 kts 277°
2026-05-06 10:31 56.20688 -22.56440 36001 ft 453 kts 277°
2026-05-06 10:32 56.21467 -22.67664 36001 ft 453 kts 277°
2026-05-06 10:32 56.22236 -22.78890 36007 ft 453 kts 277°
2026-05-06 10:33 56.22990 -22.90051 35993 ft 453 kts 277°
2026-05-06 10:33 56.23742 -23.01328 36008 ft 456 kts 277°
2026-05-06 10:34 56.24485 -23.12651 36022 ft 456 kts 277°
2026-05-06 10:34 56.25219 -23.23984 36022 ft 456 kts 277°
2026-05-06 10:35 56.25943 -23.35321 36024 ft 456 kts 277°
2026-05-06 10:35 56.26654 -23.46627 36021 ft 455 kts 276°
2026-05-06 10:36 56.27355 -23.57943 36021 ft 455 kts 276°
2026-05-06 10:36 56.28049 -23.69324 36029 ft 459 kts 276°
2026-05-06 10:37 56.28736 -23.80760 36029 ft 460 kts 276°
2026-05-06 10:37 56.29412 -23.92201 36030 ft 460 kts 276°
2026-05-06 10:38 56.30078 -24.03640 36028 ft 460 kts 276°
2026-05-06 10:38 56.30733 -24.15089 36033 ft 459 kts 276°
2026-05-06 10:39 56.31378 -24.26543 36036 ft 460 kts 275°
2026-05-06 10:39 56.32012 -24.38000 36043 ft 460 kts 275°
2026-05-06 10:40 56.32635 -24.49459 36038 ft 460 kts 275°
2026-05-06 10:40 56.33248 -24.60926 36047 ft 460 kts 275°
2026-05-06 10:41 56.33851 -24.72395 36051 ft 460 kts 275°
2026-05-06 10:41 56.34443 -24.83869 36051 ft 460 kts 275°
2026-05-06 10:42 56.35021 -24.95279 36052 ft 462 kts 275°
2026-05-06 10:42 56.35595 -25.06835 36062 ft 463 kts 275°
2026-05-06 10:43 56.36159 -25.18401 36054 ft 463 kts 275°
2026-05-06 10:44 56.36985 -25.35761 36058 ft 463 kts 274°
2026-05-06 10:44 56.37523 -25.47344 36061 ft 463 kts 274°
2026-05-06 10:45 56.38049 -25.58915 36065 ft 463 kts 274°
2026-05-06 10:45 56.38566 -25.70527 36068 ft 464 kts 274°
2026-05-06 10:46 56.39072 -25.82141 36071 ft 465 kts 274°
2026-05-06 10:46 56.39567 -25.93776 36070 ft 465 kts 274°
2026-05-06 10:47 56.40049 -26.05336 36077 ft 465 kts 274°
2026-05-06 10:47 56.40523 -26.16969 36077 ft 465 kts 274°
2026-05-06 10:48 56.40987 -26.28614 36075 ft 466 kts 273°
2026-05-06 10:48 56.41440 -26.40301 36088 ft 467 kts 273°
2026-05-06 10:49 56.41884 -26.52010 36084 ft 467 kts 273°
2026-05-06 10:49 56.42316 -26.63707 36086 ft 467 kts 273°
2026-05-06 10:50 56.42737 -26.75410 36089 ft 466 kts 273°
2026-05-06 10:50 56.43146 -26.87074 36093 ft 465 kts 273°
2026-05-06 10:51 56.43545 -26.98767 36108 ft 469 kts 272°
2026-05-06 10:51 56.43934 -27.10504 36093 ft 467 kts 272°
2026-05-06 10:52 56.44311 -27.22219 36102 ft 468 kts 272°
2026-05-06 10:52 56.44679 -27.33972 36105 ft 468 kts 272°
2026-05-06 10:53 56.44974 -27.43705 36106 ft 467 kts 272°
2026-05-06 10:53 56.45321 -27.55469 36103 ft 469 kts 272°
2026-05-06 10:54 56.45658 -27.67286 36100 ft 473 kts 271°
2026-05-06 10:54 56.45986 -27.79180 36112 ft 474 kts 271°
2026-05-06 10:55 56.46303 -27.91027 36108 ft 469 kts 271°
2026-05-06 10:55 56.46604 -28.02833 36110 ft 471 kts 271°
2026-05-06 10:56 56.46897 -28.14669 36115 ft 470 kts 271°
2026-05-06 10:56 56.47178 -28.26448 36113 ft 471 kts 271°
2026-05-06 10:57 56.47452 -28.38404 36117 ft 478 kts 270°
2026-05-06 10:57 56.47713 -28.50400 36115 ft 478 kts 271°
2026-05-06 10:58 56.47965 -28.62430 36119 ft 478 kts 270°
2026-05-06 10:58 56.48203 -28.74351 36122 ft 477 kts 271°
2026-05-06 10:59 56.48431 -28.86359 36122 ft 478 kts 270°
2026-05-06 10:59 56.48649 -28.98359 36123 ft 479 kts 270°
2026-05-06 11:00 56.48857 -29.10474 36127 ft 482 kts 270°
2026-05-06 11:00 56.49052 -29.22590 36129 ft 482 kts 269°
2026-05-06 11:01 56.49235 -29.34727 36130 ft 483 kts 270°
2026-05-06 11:01 56.49406 -29.46855 36124 ft 482 kts 269°
2026-05-06 11:02 56.49563 -29.58985 36133 ft 483 kts 270°
2026-05-06 11:02 56.49709 -29.71185 36129 ft 486 kts 270°
2026-05-06 11:03 56.49845 -29.83438 36125 ft 487 kts 269°
2026-05-06 11:03 56.49995 -29.95698 36123 ft 488 kts 272°
2026-05-06 11:04 56.51132 -30.07814 36134 ft 490 kts 282°
2026-05-06 11:04 56.52779 -30.19793 36130 ft 491 kts 283°
2026-05-06 11:05 56.54500 -30.31768 36143 ft 491 kts 282°
2026-05-06 11:05 56.56204 -30.43776 36136 ft 493 kts 283°
2026-05-06 11:06 56.57874 -30.55759 36137 ft 493 kts 283°
2026-05-06 11:06 56.59540 -30.67837 36140 ft 493 kts 282°
2026-05-06 11:07 56.61195 -30.79935 36139 ft 495 kts 282°
2026-05-06 11:07 56.62841 -30.92073 36151 ft 495 kts 283°
2026-05-06 11:08 56.64476 -31.04209 36140 ft 495 kts 282°
2026-05-06 11:08 56.66099 -31.16364 36143 ft 495 kts 282°
2026-05-06 11:09 56.67713 -31.28548 36144 ft 495 kts 282°
2026-05-06 11:09 56.69313 -31.40736 36145 ft 495 kts 282°
2026-05-06 11:10 56.70900 -31.52915 36149 ft 495 kts 283°
2026-05-06 11:10 56.72478 -31.65124 36150 ft 496 kts 282°
2026-05-06 11:11 56.74043 -31.77349 36149 ft 496 kts 282°
2026-05-06 11:11 56.75595 -31.89570 36156 ft 495 kts 282°
2026-05-06 11:12 56.77138 -32.01822 36156 ft 498 kts 282°
2026-05-06 11:12 56.78682 -32.14186 36161 ft 501 kts 282°
2026-05-06 11:13 56.80214 -32.26563 36155 ft 499 kts 282°
2026-05-06 11:13 56.81730 -32.38920 36159 ft 500 kts 282°
2026-05-06 11:14 56.83246 -32.51391 36160 ft 500 kts 282°
2026-05-06 11:14 56.84741 -32.63794 36160 ft 500 kts 282°
2026-05-06 11:15 56.86210 -32.76099 36164 ft 498 kts 282°
2026-05-06 11:15 56.87679 -32.88528 36170 ft 503 kts 282°
2026-05-06 11:16 56.89153 -33.01095 36156 ft 504 kts 282°
2026-05-06 11:16 56.90610 -33.13633 36169 ft 503 kts 282°
2026-05-06 11:17 56.92051 -33.26161 36169 ft 503 kts 282°
2026-05-06 11:17 56.93484 -33.38739 36169 ft 505 kts 282°
2026-05-06 11:18 56.94903 -33.51303 36169 ft 503 kts 282°
2026-05-06 11:18 56.96306 -33.63862 36172 ft 504 kts 282°
2026-05-06 11:19 56.97707 -33.76522 36181 ft 510 kts 282°
2026-05-06 11:19 56.99104 -33.89256 36170 ft 508 kts 282°
2026-05-06 11:20 57.00479 -34.01937 36182 ft 508 kts 282°
2026-05-06 11:20 57.01848 -34.14683 36173 ft 510 kts 281°
2026-05-06 11:21 57.03205 -34.27443 36176 ft 508 kts 281°
2026-05-06 11:21 57.04535 -34.40080 36186 ft 508 kts 281°
2026-05-06 11:22 57.05865 -34.52850 36180 ft 511 kts 281°
2026-05-06 11:22 57.07183 -34.65650 36173 ft 510 kts 281°
2026-05-06 11:23 57.08490 -34.78475 36179 ft 512 kts 281°
2026-05-06 11:23 57.09791 -34.91366 36192 ft 515 kts 281°
2026-05-06 11:24 57.11080 -35.04277 36176 ft 511 kts 281°
2026-05-06 11:24 57.12338 -35.17037 36176 ft 511 kts 281°
2026-05-06 11:25 57.13599 -35.29961 36189 ft 514 kts 281°
2026-05-06 11:25 57.14847 -35.42884 36186 ft 512 kts 281°
2026-05-06 11:26 57.16079 -35.55818 36185 ft 514 kts 281°
2026-05-06 11:26 57.17309 -35.68862 36178 ft 517 kts 281°
2026-05-06 11:27 57.18516 -35.81797 36184 ft 513 kts 280°
2026-05-06 11:27 57.19713 -35.94805 36187 ft 516 kts 281°
2026-05-06 11:28 57.20904 -36.07889 36187 ft 516 kts 280°
2026-05-06 11:28 57.22074 -36.20898 36192 ft 513 kts 280°
2026-05-06 11:29 57.23237 -36.33974 36185 ft 519 kts 280°
2026-05-06 11:29 57.24382 -36.47027 36183 ft 518 kts 280°
2026-05-06 11:30 57.25514 -36.60104 36193 ft 516 kts 279°
2026-05-06 11:30 57.26641 -36.73267 36193 ft 521 kts 279°
2026-05-06 11:31 57.27753 -36.86446 36192 ft 517 kts 279°
2026-05-06 11:31 57.28846 -36.99565 36185 ft 518 kts 280°
2026-05-06 11:32 57.29926 -37.12679 36193 ft 519 kts 279°
2026-05-06 11:32 57.30994 -37.25833 36196 ft 517 kts 279°
2026-05-06 11:33 57.32051 -37.39036 36188 ft 521 kts 279°
2026-05-06 11:33 57.33097 -37.52267 36191 ft 517 kts 279°
2026-05-06 11:34 57.34123 -37.65442 36188 ft 519 kts 279°
2026-05-06 11:34 57.35137 -37.78639 36182 ft 521 kts 279°
2026-05-06 11:35 57.36138 -37.91866 36193 ft 518 kts 278°
2026-05-06 11:35 57.37127 -38.05105 36194 ft 520 kts 278°
2026-05-06 11:36 57.38102 -38.18363 36187 ft 517 kts 278°
2026-05-06 11:36 57.39058 -38.31570 36184 ft 518 kts 278°
2026-05-06 11:37 57.40005 -38.44832 36187 ft 519 kts 278°
2026-05-06 11:37 57.40929 -38.57980 36176 ft 517 kts 278°
2026-05-06 11:38 57.41850 -38.71279 36196 ft 523 kts 278°
2026-05-06 11:38 57.42762 -38.84630 36187 ft 518 kts 277°
2026-05-06 11:39 57.43646 -38.97842 36185 ft 516 kts 277°
2026-05-06 11:39 57.44513 -39.10994 36192 ft 516 kts 277°
2026-05-06 11:40 57.45368 -39.24189 36194 ft 515 kts 277°
2026-05-06 11:40 57.46211 -39.37406 36188 ft 516 kts 277°
2026-05-06 11:41 57.47045 -39.50684 36186 ft 516 kts 277°
2026-05-06 11:41 57.47865 -39.63990 36193 ft 521 kts 277°
2026-05-06 11:42 57.48672 -39.77280 36195 ft 519 kts 277°
2026-05-06 11:42 57.49464 -39.90604 36186 ft 519 kts 277°
2026-05-06 11:43 57.50620 -40.03892 36194 ft 520 kts 284°
2026-05-06 11:43 57.52372 -40.16873 36183 ft 515 kts 285°
2026-05-06 11:44 57.55128 -40.36269 36188 ft 519 kts 286°
2026-05-06 11:44 57.56957 -40.49303 36186 ft 520 kts 285°
2026-05-06 11:45 57.58757 -40.62319 36206 ft 518 kts 285°
2026-05-06 11:45 57.60523 -40.75253 36189 ft 515 kts 285°
2026-05-06 11:46 57.62282 -40.88240 36198 ft 518 kts 285°
2026-05-06 11:46 57.64049 -41.01364 36199 ft 521 kts 285°
2026-05-06 11:47 57.65794 -41.14452 36183 ft 518 kts 285°
2026-05-06 11:47 57.67518 -41.27502 36193 ft 518 kts 284°
2026-05-06 11:48 57.69233 -41.40598 36199 ft 521 kts 285°
2026-05-06 11:48 57.70948 -41.53786 36190 ft 520 kts 285°
2026-05-06 11:49 57.72637 -41.66913 36196 ft 516 kts 284°
2026-05-06 11:49 57.74300 -41.79954 36199 ft 515 kts 284°
2026-05-06 11:50 57.75947 -41.92980 36196 ft 515 kts 284°
2026-05-06 11:50 57.77573 -42.05954 36197 ft 514 kts 284°
2026-05-06 11:51 57.79188 -42.18963 36170 ft 511 kts 284°
2026-05-06 11:51 57.80794 -42.32019 36196 ft 517 kts 284°
2026-05-06 11:52 57.82400 -42.45205 36190 ft 519 kts 283°
2026-05-06 11:52 57.83724 -42.56154 36198 ft 517 kts 283°
2026-05-06 11:53 57.85295 -42.69272 36189 ft 514 kts 283°
2026-05-06 11:53 57.87103 -42.84540 36190 ft 515 kts 283°
2026-05-06 11:54 57.88382 -42.95428 36181 ft 512 kts 283°
2026-05-06 11:54 57.89903 -43.08495 36196 ft 510 kts 283°
2026-05-06 11:55 57.91407 -43.21545 36201 ft 512 kts 283°
2026-05-06 11:55 57.92903 -43.34648 36192 ft 514 kts 283°
2026-05-06 11:56 57.94628 -43.49917 36197 ft 512 kts 282°
2026-05-06 11:56 57.95841 -43.60778 36184 ft 510 kts 283°
2026-05-06 11:57 57.97300 -43.73939 36192 ft 517 kts 282°
2026-05-06 11:57 57.98757 -43.87221 36188 ft 516 kts 282°
2026-05-06 11:58 58.00189 -44.00417 36198 ft 510 kts 282°
2026-05-06 11:58 58.01594 -44.13511 36184 ft 509 kts 282°
2026-05-06 11:59 58.02984 -44.26580 36197 ft 512 kts 282°
2026-05-06 11:59 58.04368 -44.39733 36194 ft 511 kts 281°
2026-05-06 12:00 58.05738 -44.52899 36203 ft 513 kts 281°
2026-05-06 12:00 58.07102 -44.66153 36195 ft 516 kts 281°
2026-05-06 12:01 58.08454 -44.79426 36200 ft 514 kts 281°
2026-05-06 12:01 58.09784 -44.92632 36196 ft 512 kts 281°
2026-05-06 12:02 58.11097 -45.05801 36195 ft 513 kts 281°
2026-05-06 12:02 58.12393 -45.18963 36194 ft 507 kts 280°
2026-05-06 12:03 58.13666 -45.32040 36192 ft 505 kts 280°
2026-05-06 12:03 58.14927 -45.45137 36194 ft 507 kts 280°
2026-05-06 12:04 58.16179 -45.58277 36193 ft 506 kts 280°
2026-05-06 12:04 58.17404 -45.71285 36191 ft 505 kts 280°
2026-05-06 12:05 58.18628 -45.84433 36191 ft 509 kts 279°
2026-05-06 12:05 58.19847 -45.97691 36185 ft 510 kts 279°
2026-05-06 12:06 58.21047 -46.10900 36182 ft 507 kts 279°
2026-05-06 12:06 58.22225 -46.24017 36184 ft 500 kts 279°
2026-05-06 12:07 58.23365 -46.36878 36176 ft 497 kts 279°
2026-05-06 12:07 58.24498 -46.49802 36179 ft 497 kts 279°
2026-05-06 12:08 58.25623 -46.62804 36178 ft 500 kts 279°
2026-05-06 12:08 58.26739 -46.75860 36177 ft 501 kts 278°
2026-05-06 12:09 58.27840 -46.88901 36159 ft 500 kts 278°
2026-05-06 12:09 58.28921 -47.01868 36164 ft 500 kts 278°
2026-05-06 12:10 58.29997 -47.14936 36176 ft 500 kts 278°
2026-05-06 12:10 58.31059 -47.28004 36161 ft 500 kts 278°
2026-05-06 12:11 58.32098 -47.40960 36143 ft 492 kts 278°
2026-05-06 12:11 58.33115 -47.53825 36157 ft 491 kts 278°
2026-05-06 12:12 58.34112 -47.66609 36161 ft 491 kts 278°
2026-05-06 12:12 58.35103 -47.79471 36132 ft 491 kts 277°
2026-05-06 12:13 58.36081 -47.92348 36147 ft 492 kts 277°
2026-05-06 12:13 58.37049 -48.05266 36146 ft 494 kts 277°
2026-05-06 12:14 58.38007 -48.18230 36130 ft 494 kts 277°
2026-05-06 12:14 58.38951 -48.31196 36130 ft 494 kts 277°
2026-05-06 12:15 58.39875 -48.44066 36130 ft 490 kts 277°
2026-05-06 12:15 58.40776 -48.56799 36126 ft 481 kts 277°
2026-05-06 12:16 58.41658 -48.69453 36116 ft 482 kts 277°
2026-05-06 12:16 58.42529 -48.82127 36111 ft 481 kts 276°
2026-05-06 12:17 58.43384 -48.94752 36115 ft 480 kts 276°
2026-05-06 12:17 58.44227 -49.07417 36097 ft 482 kts 276°
2026-05-06 12:18 58.45054 -49.19999 36104 ft 480 kts 276°
2026-05-06 12:18 58.45871 -49.32632 36103 ft 480 kts 276°
2026-05-06 12:19 58.46680 -49.45349 36096 ft 484 kts 276°
2026-05-06 12:19 58.47479 -49.58093 36087 ft 480 kts 275°
2026-05-06 12:20 58.48249 -49.70597 36079 ft 471 kts 276°
2026-05-06 12:20 58.48998 -49.82949 36079 ft 471 kts 275°
2026-05-06 12:21 58.49693 -49.95344 36073 ft 466 kts 272°
2026-05-06 12:21 58.49267 -50.07678 36077 ft 467 kts 261°
2026-05-06 12:22 58.48166 -50.19931 36079 ft 467 kts 258°
2026-05-06 12:22 58.46948 -50.32154 36050 ft 468 kts 258°
2026-05-06 12:23 58.45723 -50.44370 36062 ft 470 kts 258°
2026-05-06 12:23 58.44517 -50.56491 36062 ft 468 kts 258°
2026-05-06 12:24 58.43291 -50.68772 36034 ft 466 kts 258°
2026-05-06 12:24 58.42071 -50.80861 36045 ft 468 kts 258°
2026-05-06 12:25 58.40833 -50.93011 36032 ft 467 kts 258°
2026-05-06 12:25 58.39581 -51.05166 36033 ft 466 kts 258°
2026-05-06 12:26 58.38318 -51.17329 36033 ft 469 kts 257°
2026-05-06 12:26 58.37036 -51.29507 36017 ft 468 kts 257°
2026-05-06 12:27 58.35753 -51.41594 36004 ft 463 kts 257°
2026-05-06 12:27 58.34464 -51.53639 35990 ft 463 kts 257°
2026-05-06 12:28 58.33164 -51.65644 35988 ft 465 kts 257°
2026-05-06 12:28 58.31856 -51.77629 35995 ft 462 kts 257°
2026-05-06 12:29 58.30533 -51.89642 35970 ft 463 kts 257°
2026-05-06 12:29 58.29200 -52.01635 35979 ft 464 kts 256°
2026-05-06 12:30 58.27869 -52.13510 35973 ft 458 kts 255°
2026-05-06 12:30 58.26541 -52.25249 35952 ft 456 kts 255°
2026-05-06 12:31 58.25194 -52.37065 35951 ft 457 kts 255°
2026-05-06 12:31 58.23836 -52.48842 35943 ft 459 kts 255°
2026-05-06 12:32 58.22465 -52.60634 35933 ft 456 kts 255°
2026-05-06 12:32 58.21087 -52.72420 35928 ft 457 kts 255°
2026-05-06 12:33 58.19699 -52.84168 35917 ft 456 kts 255°
2026-05-06 12:33 58.18302 -52.95870 35916 ft 455 kts 255°
2026-05-06 12:34 58.16894 -53.07555 35903 ft 456 kts 254°
2026-05-06 12:34 58.15469 -53.19293 35895 ft 458 kts 254°
2026-05-06 12:35 58.14032 -53.31047 35886 ft 458 kts 254°